�v������,,���ԉ��x,�����t���O,���Ԏ��x,�����t���O,���ʉ��x,�����t���O,�q�������x,�����t���O,�{�C���[,�����t���O,
2004/10/1,0:05:00,24.8,0,60.6,0,26.6,0,24.2,0,40.5,0,
2004/10/1,0:15:00,24.8,0,61.3,0,27,0,24.2,0,39.4,0,
2004/10/1,0:25:00,24.8,0,61.4,0,27.2,0,24.3,0,39.6,0,
2004/10/1,0:35:00,24.8,0,61.8,0,27.4,0,24.3,0,38.5,0,
2004/10/1,0:45:00,24.8,0,61.9,0,27.5,0,24.4,0,36.9,0,
2004/10/1,0:55:00,24.8,0,61.9,0,27.5,0,24.5,0,35.5,0,
2004/10/1,1:05:00,24.8,0,62.3,0,27.5,0,24.6,0,34.4,0,
2004/10/1,1:15:00,24.8,0,62.2,0,27.5,0,24.6,0,33.5,0,
2004/10/1,1:25:00,24.8,0,62.1,0,27.5,0,24.7,0,32.7,0,
2004/10/1,1:35:00,24.8,0,61.9,0,27.5,0,24.8,0,32.1,0,
2004/10/1,1:45:00,24.8,0,62.4,0,27.5,0,24.7,0,31.5,0,
2004/10/1,1:55:00,24.8,0,61.8,0,27.4,0,24.7,0,31.1,0,
2004/10/1,2:05:00,24.8,0,61.6,0,27.4,0,24.7,0,30.6,0,
2004/10/1,2:15:00,24.8,0,62,0,27.3,0,24.6,0,30.3,0,
2004/10/1,2:25:00,24.8,0,62.3,0,27.3,0,24.6,0,29.9,0,
2004/10/1,2:35:00,24.8,0,62.2,0,27.2,0,24.6,0,29.7,0
2004/10/1,2:45:00,24.8,0,62.5,0,27.2,0,24.6,0,29.5,0
2004/10/1,2:55:00,24.8,0,62.6,0,27.1,0,24.5,0,29.3,0
2004/10/1,3:05:00,24.8,0,62.6,0,27.1,0,24.5,0,29.2,0
2004/10/1,3:15:00,24.8,0,62.7,0,27,0,24.5,0,29,0
2004/10/1,3:25:00,24.7,0,62.9,0,27,0,24.5,0,28.9,0
2004/10/1,3:35:00,24.7,0,63.1,0,26.9,0,24.5,0,28.7,0
2004/10/1,3:45:00,24.7,0,63.1,0,26.9,0,24.5,0,28.6,0
2004/10/1,3:55:00,24.7,0,63.1,0,26.8,0,24.5,0,28.5,0
2004/10/1,4:05:00,24.7,0,62.9,0,26.8,0,24.5,0,28.4,0
2004/10/1,4:15:00,24.7,0,63.3,0,26.7,0,24.5,0,28.4,0
2004/10/1,4:25:00,24.7,0,63.1,0,26.7,0,24.5,0,28.3,0
2004/10/1,4:35:00,24.7,0,63.1,0,26.6,0,24.5,0,28.2,0
2004/10/1,4:45:00,24.7,0,63.1,0,26.6,0,24.5,0,28.1,0
2004/10/1,4:55:00,24.7,0,63.1,0,26.6,0,24.5,0,28,0
2004/10/1,5:05:00,24.7,0,63.1,0,26.5,0,24.4,0,28,0
2004/10/1,5:15:00,24.7,0,63,0,26.5,0,24.4,0,27.9,0
2004/10/1,5:25:00,24.7,0,62.4,0,26.5,0,24.4,0,27.9,0
2004/10/1,5:35:00,24.7,0,62.8,0,26.4,0,24.4,0,27.8,0
2004/10/1,5:45:00,24.7,0,62.9,0,26.4,0,24.4,0,27.8,0
2004/10/1,5:55:00,24.7,0,62.6,0,26.4,0,24.4,0,27.7,0
2004/10/1,6:05:00,24.7,0,63.1,0,26.3,0,24.4,0,27.7,0
2004/10/1,6:15:00,24.7,0,62.7,0,26.3,0,24.5,0,27.6,0
2004/10/1,6:25:00,24.7,0,62.5,0,26.3,0,24.6,0,27.6,0
2004/10/1,6:35:00,24.7,0,62.5,0,26.2,0,24.7,0,27.5,0
2004/10/1,6:45:00,24.7,0,63.1,0,26.2,0,24.8,0,27.5,0
2004/10/1,6:55:00,24.7,0,63.1,0,26.2,0,25,0,27.5,0
2004/10/1,7:05:00,24.7,0,62.7,0,26.2,0,25.1,0,27.4,0
2004/10/1,7:15:00,24.7,0,64.9,0,26.1,0,25.3,0,27.4,0
2004/10/1,7:25:00,24.6,0,64.4,0,26.1,0,25.6,0,27.3,0
2004/10/1,7:35:00,24.7,0,61.7,0,26.1,0,25.8,0,27.3,0
2004/10/1,7:45:00,24.8,0,62.4,0,26.1,0,25.9,0,27.4,0
2004/10/1,7:55:00,24.9,0,65.1,0,26,0,25.9,0,27.4,0
2004/10/1,8:05:00,24.9,0,63.1,0,26.2,0,25.8,0,27.4,0
2004/10/1,8:15:00,25,0,65.1,0,26.2,0,25.9,0,27.5,0
2004/10/1,8:25:00,25,0,66.5,0,26.2,0,25.8,0,27.5,0
2004/10/1,8:35:00,25.1,0,66,0,26.2,0,25.8,0,27.6,0
2004/10/1,8:45:00,25.1,0,63.6,0,26.2,0,25.6,0,27.5,0
2004/10/1,8:55:00,25.2,0,62.9,0,26.2,0,25.6,0,27.5,0
2004/10/1,9:05:00,25.2,0,66.5,0,26.2,0,25.5,0,27.4,0
2004/10/1,9:15:00,25.3,0,66.4,0,26.2,0,25.4,0,27.3,0
2004/10/1,9:25:00,25.3,0,66.6,0,26.1,0,25.3,0,27.3,0
2004/10/1,9:35:00,25.2,0,58,0,26.6,0,25.3,0,27.4,0
2004/10/1,9:45:00,25.3,0,61.1,0,27.1,0,25.2,0,27.4,0
2004/10/1,9:55:00,25.4,0,64.9,0,27.1,0,25.2,0,27.4,0
2004/10/1,10:05:00,25.4,0,63.1,0,27,0,25.1,0,27.3,0
2004/10/1,10:15:00,25.2,0,55.2,0,26.9,0,25.1,0,27.3,0
2004/10/1,10:25:00,25,0,51.3,0,26.8,0,25.1,0,27.3,0
2004/10/1,10:35:00,24.8,0,49.4,0,26.7,0,25,0,27.3,0
2004/10/1,10:45:00,24.7,0,48.2,0,26.6,0,25,0,27.3,0
2004/10/1,10:55:00,24.7,0,47.9,0,26.5,0,25,0,27.2,0
2004/10/1,11:05:00,24.6,0,46.5,0,26.4,0,25,0,27.2,0
2004/10/1,11:15:00,24.6,0,47.1,0,26.3,0,24.9,0,27.2,0
2004/10/1,11:25:00,24.5,0,46.8,0,26.2,0,24.9,0,27.2,0
2004/10/1,11:35:00,24.5,0,47.7,0,26.1,0,24.9,0,27.2,0
2004/10/1,11:45:00,24.5,0,49,0,26,0,24.9,0,27.1,0
2004/10/1,11:55:00,24.5,0,49.1,0,26,0,24.8,0,27.1,0
2004/10/1,12:05:00,24.4,0,49.1,0,25.9,0,24.8,0,27.1,0
2004/10/1,12:15:00,24.4,0,49.2,0,25.9,0,24.8,0,27.1,0
2004/10/1,12:25:00,24.4,0,50.4,0,26,0,24.8,0,26.8,0
2004/10/1,12:35:00,24.4,0,52.2,0,26,0,24.8,0,26.7,0
2004/10/1,12:45:00,24.4,0,52.5,0,26,0,24.8,0,26.7,0
2004/10/1,12:55:00,24.4,0,53.6,0,26,0,24.7,0,26.6,0
2004/10/1,13:05:00,24.4,0,52.9,0,26,0,24.7,0,26.5,0
2004/10/1,13:15:00,24.3,0,50.3,0,25.8,0,24.7,0,26.4,0
2004/10/1,13:25:00,24.2,0,50.5,0,25.7,0,24.7,0,26.3,0
2004/10/1,13:35:00,24.2,0,50.9,0,25.5,0,24.7,0,26.3,0
2004/10/1,13:45:00,24.2,0,50.8,0,25.4,0,24.7,0,26.2,0
2004/10/1,13:55:00,24.1,0,50.9,0,25.3,0,24.6,0,26.2,0
2004/10/1,14:05:00,24,0,50.7,0,25.2,0,24.6,0,26.1,0
2004/10/1,14:15:00,23.9,0,49.9,0,25.1,0,24.6,0,26.1,0
2004/10/1,14:25:00,23.8,0,49.1,0,25,0,24.6,0,25.9,0
2004/10/1,14:35:00,23.7,0,49.4,0,24.9,0,24.6,0,25.7,0
2004/10/1,14:45:00,23.6,0,49.6,0,24.9,0,24.6,0,25.7,0
2004/10/1,14:55:00,23.6,0,50.2,0,24.8,0,24.5,0,25.7,0
2004/10/1,15:05:00,23.6,0,51,0,24.7,0,24.5,0,25.7,0
2004/10/1,15:15:00,23.7,0,51.6,0,24.7,0,24.5,0,25.7,0
2004/10/1,15:25:00,23.8,0,51.7,0,24.6,0,24.5,0,25.7,0
2004/10/1,15:35:00,23.8,0,52.1,0,24.6,0,24.5,0,25.7,0
2004/10/1,15:45:00,23.7,0,51.8,0,24.6,0,24.4,0,25.7,0
2004/10/1,15:55:00,23.9,0,51.4,0,24.6,0,24.4,0,25.7,0
2004/10/1,16:05:00,23.8,0,51.8,0,24.6,0,24.4,0,25.7,0
2004/10/1,16:15:00,23.7,0,52.2,0,24.5,0,24.3,0,25.7,0
2004/10/1,16:25:00,23.6,0,52.4,0,24.5,0,24.3,0,25.7,0
2004/10/1,16:35:00,23.6,0,52.8,0,24.5,0,24.3,0,25.7,0
2004/10/1,16:45:00,23.5,0,52.8,0,24.5,0,24.3,0,25.7,0
2004/10/1,16:55:00,23.5,0,52.9,0,24.5,0,24.2,0,25.7,0
2004/10/1,17:05:00,23.4,0,53.3,0,24.5,0,24.2,0,25.7,0
2004/10/1,17:15:00,23.4,0,53.9,0,24.5,0,24.2,0,25.7,0
2004/10/1,17:25:00,23.5,0,54.3,0,24.5,0,24.2,0,25.7,0
2004/10/1,17:35:00,23.6,0,55,0,24.5,0,24.2,0,25.7,0
2004/10/1,17:45:00,23.6,0,54.6,0,24.5,0,24.2,0,25.7,0
2004/10/1,17:55:00,23.7,0,55.3,0,24.5,0,24.2,0,25.7,0
2004/10/1,18:05:00,23.7,0,56,0,24.5,0,24.1,0,25.7,0
2004/10/1,18:15:00,23.8,0,58.6,0,24.5,0,24.1,0,25.7,0
2004/10/1,18:25:00,23.9,0,58,0,24.5,0,24.1,0,25.7,0
2004/10/1,18:35:00,23.9,0,57.9,0,24.5,0,24.1,0,25.7,0
2004/10/1,18:45:00,23.9,0,57.5,0,24.5,0,24.1,0,25.7,0
2004/10/1,18:55:00,24,0,58,0,24.7,0,24.1,0,44.9,0
2004/10/1,19:05:00,24,0,57,0,24.8,0,24.1,0,52.2,0
2004/10/1,19:15:00,24.1,0,57.6,0,25.1,0,24.1,0,52.1,0
2004/10/1,19:25:00,24,0,58.2,0,25.5,0,24.2,0,52.5,0
2004/10/1,19:35:00,24.1,0,59.3,0,25.9,0,24.3,0,53.5,0
2004/10/1,19:45:00,24.2,0,59.4,0,26.3,0,24.3,0,54,0
2004/10/1,19:55:00,24.3,0,60,0,26.7,0,24.3,0,52.7,0
2004/10/1,20:05:00,24.3,0,59.7,0,27.1,0,24.3,0,52.9,0
2004/10/1,20:15:00,24.4,0,59.1,0,27.5,0,24.4,0,54.3,0
2004/10/1,20:25:00,24.4,0,60.2,0,27.8,0,24.4,0,53.7,0
2004/10/1,20:35:00,24.5,0,60.5,0,28,0,24.4,0,49.7,0
2004/10/1,20:45:00,24.5,0,60.3,0,28.2,0,24.3,0,44.8,0
2004/10/1,20:55:00,24.5,0,60.5,0,28.3,0,24.3,0,41.3,0
2004/10/1,21:05:00,24.6,0,60.1,0,28.3,0,24.3,0,38.8,0
2004/10/1,21:15:00,24.6,0,60.2,0,28.3,0,24.3,0,37,0
2004/10/1,21:25:00,24.7,0,60.1,0,28.3,0,24.3,0,35.3,0
2004/10/1,21:35:00,24.7,0,59,0,28.2,0,24.3,0,34.2,0
2004/10/1,21:45:00,24.7,0,60.2,0,28.1,0,24.3,0,33.3,0
2004/10/1,21:55:00,24.8,0,60,0,28.1,0,24.2,0,32.5,0
2004/10/1,22:05:00,24.8,0,60.4,0,28,0,24.2,0,31.8,0
2004/10/1,22:15:00,24.8,0,60.2,0,27.9,0,24.2,0,31.3,0
2004/10/1,22:25:00,24.8,0,60.2,0,27.8,0,24.2,0,30.8,0
2004/10/1,22:35:00,24.8,0,60.6,0,27.7,0,24.2,0,30.4,0
2004/10/1,22:45:00,24.9,0,60.3,0,27.6,0,24.2,0,30.1,0
2004/10/1,22:55:00,24.8,0,60.2,0,27.6,0,24.2,0,29.8,0
2004/10/1,23:05:00,24.9,0,59.6,0,27.5,0,24.2,0,29.6,0
2004/10/1,23:15:00,24.9,0,58.6,0,27.4,0,24.2,0,29.4,0
2004/10/1,23:25:00,24.9,0,59.5,0,27.3,0,24.3,0,29.2,0
2004/10/1,23:35:00,24.9,0,60.2,0,27.3,0,24.3,0,29.1,0
2004/10/1,23:45:00,24.9,0,60.6,0,27.2,0,24.4,0,28.9,0
2004/10/1,23:55:00,24.9,0,59.9,0,27.1,0,24.4,0,28.8,0
2004/10/2,0:05:00,24.9,0,59.9,0,27.1,0,24.5,0,28.7,0
2004/10/2,0:15:00,24.9,0,61.6,0,27,0,24.6,0,28.6,0
2004/10/2,0:25:00,24.9,0,61.6,0,26.9,0,24.6,0,28.5,0
2004/10/2,0:35:00,24.9,0,61.2,0,26.9,0,24.7,0,28.4,0
2004/10/2,0:45:00,24.9,0,60.8,0,26.8,0,24.7,0,28.3,0
2004/10/2,0:55:00,24.9,0,60.4,0,26.8,0,24.8,0,28.2,0
2004/10/2,1:05:00,24.9,0,59.7,0,26.7,0,24.8,0,28.2,0
2004/10/2,1:15:00,24.9,0,60.4,0,26.7,0,24.8,0,28.1,0
2004/10/2,1:25:00,24.9,0,60.7,0,26.6,0,24.9,0,28,0
2004/10/2,1:35:00,24.9,0,60.4,0,26.6,0,24.8,0,28,0
2004/10/2,1:45:00,24.9,0,60.5,0,26.6,0,24.8,0,27.9,0
2004/10/2,1:55:00,24.8,0,59.7,0,26.5,0,24.8,0,27.9,0
2004/10/2,2:05:00,24.8,0,60.2,0,26.5,0,24.7,0,27.8,0
2004/10/2,2:15:00,24.8,0,60.6,0,26.5,0,24.7,0,27.8,0
2004/10/2,2:25:00,24.8,0,60.9,0,26.4,0,24.7,0,27.7,0
2004/10/2,2:35:00,24.8,0,60.8,0,26.4,0,24.6,0,27.7,0
2004/10/2,2:45:00,24.8,0,61,0,26.4,0,24.6,0,27.7,0
2004/10/2,2:55:00,24.8,0,60.8,0,26.4,0,24.6,0,27.6,0
2004/10/2,3:05:00,24.8,0,60.6,0,26.3,0,24.6,0,27.6,0
2004/10/2,3:15:00,24.8,0,60.3,0,26.3,0,24.6,0,27.5,0
2004/10/2,3:25:00,24.8,0,61,0,26.3,0,24.6,0,27.5,0
2004/10/2,3:35:00,24.8,0,60.7,0,26.2,0,24.7,0,27.5,0
2004/10/2,3:45:00,24.7,0,61.4,0,26.2,0,24.6,0,27.4,0
2004/10/2,3:55:00,24.7,0,61.2,0,26.2,0,24.7,0,27.4,0
2004/10/2,4:05:00,24.7,0,61.1,0,26.2,0,24.7,0,27.4,0
2004/10/2,4:15:00,24.7,0,60.6,0,26.1,0,24.6,0,27.3,0
2004/10/2,4:25:00,24.7,0,61,0,26.1,0,24.6,0,27.3,0
2004/10/2,4:35:00,24.7,0,60.7,0,26.1,0,24.6,0,27.3,0
2004/10/2,4:45:00,24.7,0,60.9,0,26.1,0,24.6,0,27.2,0
2004/10/2,4:55:00,24.7,0,60.1,0,26,0,24.6,0,27.2,0
2004/10/2,5:05:00,24.7,0,60.9,0,26,0,24.6,0,27.2,0
2004/10/2,5:15:00,24.7,0,60.5,0,26,0,24.6,0,27.2,0
2004/10/2,5:25:00,24.7,0,61.3,0,26,0,24.6,0,27.1,0
2004/10/2,5:35:00,24.7,0,61,0,26,0,24.6,0,27.1,0
2004/10/2,5:45:00,24.6,0,61.9,0,25.9,0,24.6,0,27.1,0
2004/10/2,5:55:00,24.6,0,61.5,0,25.9,0,24.6,0,27,0
2004/10/2,6:05:00,24.6,0,62.5,0,25.9,0,24.6,0,27,0
2004/10/2,6:15:00,24.6,0,62.1,0,25.9,0,24.6,0,27,0
2004/10/2,6:25:00,24.6,0,62.3,0,25.9,0,24.6,0,27,0
2004/10/2,6:35:00,24.7,0,63.8,0,25.8,0,24.6,0,27,0
2004/10/2,6:45:00,24.7,0,62,0,25.8,0,24.6,0,26.9,0
2004/10/2,6:55:00,24.7,0,61.4,0,25.8,0,24.6,0,26.9,0
2004/10/2,7:05:00,24.7,0,62.7,0,25.8,0,24.6,0,26.9,0
2004/10/2,7:15:00,24.7,0,62.1,0,25.8,0,24.6,0,26.9,0
2004/10/2,7:25:00,24.7,0,62.5,0,25.8,0,24.6,0,26.8,0
2004/10/2,7:35:00,24.7,0,62.7,0,25.7,0,24.6,0,26.8,0
2004/10/2,7:45:00,24.7,0,61.3,0,25.7,0,24.6,0,26.8,0
2004/10/2,7:55:00,24.7,0,61.6,0,25.7,0,24.5,0,26.8,0
2004/10/2,8:05:00,24.7,0,60.8,0,25.7,0,24.5,0,26.8,0
2004/10/2,8:15:00,24.7,0,60.7,0,25.7,0,24.5,0,26.8,0
2004/10/2,8:25:00,24.7,0,60.5,0,25.7,0,24.5,0,26.7,0
2004/10/2,8:35:00,24.7,0,61,0,25.7,0,24.6,0,26.8,0
2004/10/2,8:45:00,24.7,0,59.5,0,25.6,0,24.6,0,26.7,0
2004/10/2,8:55:00,24.8,0,61.1,0,25.6,0,24.6,0,26.7,0
2004/10/2,9:05:00,24.8,0,61.3,0,25.6,0,24.6,0,26.8,0
2004/10/2,9:15:00,24.9,0,62.6,0,25.6,0,24.6,0,26.8,0
2004/10/2,9:25:00,25,0,63.6,0,25.6,0,24.6,0,26.8,0
2004/10/2,9:35:00,25.1,0,62.2,0,25.7,0,24.6,0,26.8,0
2004/10/2,9:45:00,25.1,0,61.5,0,25.7,0,24.6,0,26.8,0
2004/10/2,9:55:00,25.2,0,60.3,0,25.7,0,24.5,0,26.9,0
2004/10/2,10:05:00,25.2,0,63.3,0,25.8,0,24.5,0,26.9,0
2004/10/2,10:15:00,25.3,0,63,0,26,0,24.5,0,27,0
2004/10/2,10:25:00,25.3,0,62.4,0,26.4,0,24.7,0,27.1,0
2004/10/2,10:35:00,25.1,0,54.1,0,26.7,0,24.8,0,27.2,0
2004/10/2,10:45:00,25.2,0,62,0,26.6,0,24.8,0,27.2,0
2004/10/2,10:55:00,25.2,0,61.9,0,26.6,0,24.8,0,27.3,0
2004/10/2,11:05:00,25.1,0,61.6,0,26.5,0,24.7,0,27.3,0
2004/10/2,11:15:00,25.1,0,61.6,0,26.4,0,24.7,0,27.3,0
2004/10/2,11:25:00,25.1,0,61.6,0,26.4,0,24.6,0,27.3,0
2004/10/2,11:35:00,25,0,61,0,26.3,0,24.6,0,27.3,0
2004/10/2,11:45:00,25,0,61,0,26.2,0,24.6,0,27.3,0
2004/10/2,11:55:00,25,0,60.6,0,26.2,0,24.5,0,27.2,0
2004/10/2,12:05:00,24.9,0,59.9,0,26.1,0,24.5,0,27.2,0
2004/10/2,12:15:00,24.9,0,59.6,0,26.1,0,24.5,0,27.1,0
2004/10/2,12:25:00,24.9,0,59.2,0,26,0,24.5,0,27.1,0
2004/10/2,12:35:00,24.9,0,59,0,26,0,24.5,0,27,0
2004/10/2,12:45:00,24.8,0,58.8,0,25.9,0,24.5,0,27,0
2004/10/2,12:55:00,24.8,0,58.9,0,25.9,0,24.5,0,27,0
2004/10/2,13:05:00,24.8,0,58.7,0,25.8,0,24.5,0,26.9,0
2004/10/2,13:15:00,24.7,0,58.4,0,25.8,0,24.4,0,26.9,0
2004/10/2,13:25:00,24.7,0,58.6,0,25.7,0,24.4,0,26.8,0
2004/10/2,13:35:00,24.7,0,58.5,0,25.7,0,24.4,0,26.8,0
2004/10/2,13:45:00,24.7,0,58.6,0,25.6,0,24.4,0,26.8,0
2004/10/2,13:55:00,24.7,0,58.3,0,25.6,0,24.4,0,26.8,0
2004/10/2,14:05:00,24.7,0,58.2,0,25.6,0,24.4,0,26.8,0
2004/10/2,14:15:00,24.7,0,58.5,0,25.5,0,24.4,0,26.8,0
2004/10/2,14:25:00,24.7,0,58.3,0,25.5,0,24.4,0,26.7,0
2004/10/2,14:35:00,24.6,0,58.3,0,25.5,0,24.4,0,26.7,0
2004/10/2,14:45:00,24.6,0,58.4,0,25.5,0,24.4,0,26.7,0
2004/10/2,14:55:00,24.6,0,58.3,0,25.4,0,24.3,0,26.6,0
2004/10/2,15:05:00,24.6,0,58.2,0,25.4,0,24.3,0,26.6,0
2004/10/2,15:15:00,24.6,0,57.7,0,25.4,0,24.3,0,26.6,0
2004/10/2,15:25:00,24.6,0,58,0,25.4,0,24.3,0,26.5,0
2004/10/2,15:35:00,24.6,0,58.2,0,25.3,0,24.3,0,26.5,0
2004/10/2,15:45:00,24.4,0,52.6,0,25.3,0,24.3,0,26.6,0
2004/10/2,15:55:00,24.2,0,61.6,0,25.3,0,24.3,0,26.6,0
2004/10/2,16:05:00,24.4,0,61.7,0,25.3,0,24.3,0,26.7,0
2004/10/2,16:15:00,24.2,0,62.3,0,25.3,0,24.3,0,26.7,0
2004/10/2,16:25:00,24.1,0,62,0,25.3,0,24.3,0,26.7,0
2004/10/2,16:35:00,24.1,0,62.6,0,25.3,0,24.4,0,26.7,0
2004/10/2,16:45:00,24,0,62.2,0,25.3,0,24.4,0,26.7,0
2004/10/2,16:55:00,24,0,63.3,0,25.4,0,24.5,0,26.7,0
2004/10/2,17:05:00,24,0,64.8,0,25.5,0,24.6,0,26.7,0
2004/10/2,17:15:00,24.1,0,63,0,25.6,0,24.7,0,26.6,0
2004/10/2,17:25:00,24.1,0,58.8,0,25.6,0,24.7,0,26.5,0
2004/10/2,17:35:00,24,0,55.6,0,25.7,0,24.7,0,26.6,0
2004/10/2,17:45:00,24,0,54.6,0,25.7,0,24.7,0,26.6,0
2004/10/2,17:55:00,23.9,0,49.8,0,25.8,0,24.7,0,26.5,0
2004/10/2,18:05:00,23.8,0,49.1,0,25.8,0,24.7,0,26.5,0
2004/10/2,18:15:00,23.7,0,47,0,25.8,0,24.7,0,26.5,0
2004/10/2,18:25:00,23.6,0,47.6,0,25.8,0,24.7,0,26.3,0
2004/10/2,18:35:00,23.5,0,47.3,0,25.7,0,24.7,0,52.1,0
2004/10/2,18:45:00,23.4,0,47.7,0,25.7,0,24.7,0,51.7,0
2004/10/2,18:55:00,23.3,0,47.5,0,25.8,0,24.6,0,51.7,0
2004/10/2,19:05:00,23.3,0,46.8,0,26,0,24.6,0,51.7,0
2004/10/2,19:15:00,23.2,0,46.9,0,26.3,0,24.5,0,52.1,0
2004/10/2,19:25:00,23.1,0,48.9,0,26.5,0,24.5,0,52.2,0
2004/10/2,19:35:00,23.1,0,48.2,0,26.8,0,24.5,0,52.9,0
2004/10/2,19:45:00,23.1,0,48.6,0,27.1,0,24.5,0,53.6,0
2004/10/2,19:55:00,23,0,48.4,0,27.3,0,24.5,0,53.8,0
2004/10/2,20:05:00,22.9,0,47.3,0,27.5,0,24.5,0,54.4,0
2004/10/2,20:15:00,22.9,0,48.5,0,27.7,0,24.5,0,53.7,0
2004/10/2,20:25:00,23,0,49.4,0,27.8,0,24.6,0,53,0
2004/10/2,20:35:00,22.8,0,48.1,0,27.9,0,24.6,0,52.7,0
2004/10/2,20:45:00,22.8,0,47.2,0,28.1,0,24.5,0,49.1,0
2004/10/2,20:55:00,22.8,0,47.4,0,28.1,0,24.5,0,44,0
2004/10/2,21:05:00,22.8,0,47,0,28.1,0,24.5,0,40.4,0
2004/10/2,21:15:00,22.7,0,45.9,0,28.1,0,24.5,0,37.8,0
2004/10/2,21:25:00,22.6,0,45.8,0,28,0,24.4,0,36,0
2004/10/2,21:35:00,22.6,0,44.6,0,27.9,0,24.4,0,34.4,0
2004/10/2,21:45:00,22.5,0,44.5,0,27.8,0,24.4,0,33.3,0
2004/10/2,21:55:00,22.5,0,48.5,0,27.7,0,24.4,0,32.4,0
2004/10/2,22:05:00,22.8,0,50.4,0,27.5,0,24.5,0,31.7,0
2004/10/2,22:15:00,22.9,0,53.3,0,27.4,0,24.5,0,31.1,0
2004/10/2,22:25:00,22.9,0,53.8,0,27.3,0,24.6,0,30.6,0
2004/10/2,22:35:00,23,0,54.6,0,27.3,0,24.7,0,30.2,0
2004/10/2,22:45:00,23.1,0,55.2,0,27.2,0,24.7,0,29.9,0
2004/10/2,22:55:00,23.1,0,55.9,0,27.1,0,24.8,0,29.6,0
2004/10/2,23:05:00,23.2,0,56.6,0,27,0,24.8,0,29.4,0
2004/10/2,23:15:00,23.2,0,56,0,26.9,0,24.9,0,29.1,0
2004/10/2,23:25:00,23.2,0,56.6,0,26.9,0,24.9,0,29,0
2004/10/2,23:35:00,23.3,0,57.2,0,26.8,0,24.9,0,28.8,0
2004/10/2,23:45:00,23.3,0,58.2,0,26.7,0,25,0,28.6,0
2004/10/2,23:55:00,23.3,0,58.3,0,26.7,0,25,0,28.5,0
2004/10/3,0:05:00,23.3,0,57.9,0,26.6,0,25,0,28.4,0
2004/10/3,0:15:00,23.3,0,57.7,0,26.5,0,25,0,28.3,0
2004/10/3,0:25:00,23.4,0,58.6,0,26.5,0,25.1,0,28.2,0
2004/10/3,0:35:00,23.4,0,58.5,0,26.4,0,25.1,0,28.1,0
2004/10/3,0:45:00,23.4,0,59.3,0,26.4,0,25.1,0,28,0
2004/10/3,0:55:00,23.4,0,58.8,0,26.4,0,25.1,0,27.9,0
2004/10/3,1:05:00,23.4,0,59.1,0,26.4,0,25.2,0,27.9,0
2004/10/3,1:15:00,23.4,0,59.4,0,26.3,0,25.2,0,27.8,0
2004/10/3,1:25:00,23.4,0,59.4,0,26.3,0,25.2,0,27.7,0
2004/10/3,1:35:00,23.4,0,59.4,0,26.2,0,25.2,0,27.7,0
2004/10/3,1:45:00,23.5,0,59.6,0,26.2,0,25.2,0,27.6,0
2004/10/3,1:55:00,23.5,0,59.4,0,26.2,0,25.1,0,27.6,0
2004/10/3,2:05:00,23.5,0,60.1,0,26.1,0,25,0,27.5,0
2004/10/3,2:15:00,23.5,0,60.1,0,26.1,0,25,0,27.5,0
2004/10/3,2:25:00,23.5,0,60,0,26.1,0,24.9,0,27.5,0
2004/10/3,2:35:00,23.5,0,60.7,0,26,0,24.9,0,27.4,0
2004/10/3,2:45:00,23.5,0,60.2,0,26,0,24.8,0,27.3,0
2004/10/3,2:55:00,23.5,0,60.1,0,26,0,24.8,0,27.3,0
2004/10/3,3:05:00,23.5,0,60.1,0,25.9,0,24.8,0,27.3,0
2004/10/3,3:15:00,23.5,0,60.7,0,25.9,0,24.7,0,27.2,0
2004/10/3,3:25:00,23.5,0,61,0,25.9,0,24.7,0,27.2,0
2004/10/3,3:35:00,23.5,0,60.9,0,25.9,0,24.7,0,27.2,0
2004/10/3,3:45:00,23.5,0,61,0,25.8,0,24.7,0,27.1,0
2004/10/3,3:55:00,23.5,0,61.2,0,25.8,0,24.6,0,27.1,0
2004/10/3,4:05:00,23.5,0,61.2,0,25.8,0,24.6,0,27.1,0
2004/10/3,4:15:00,23.5,0,61.3,0,25.8,0,24.6,0,27,0
2004/10/3,4:25:00,23.6,0,61.6,0,25.7,0,24.6,0,27,0
2004/10/3,4:35:00,23.5,0,61.9,0,25.7,0,24.6,0,27,0
2004/10/3,4:45:00,23.6,0,61.6,0,25.7,0,24.6,0,26.9,0
2004/10/3,4:55:00,23.5,0,61.7,0,25.7,0,24.6,0,26.9,0
2004/10/3,5:05:00,23.6,0,61.9,0,25.6,0,24.6,0,26.9,0
2004/10/3,5:15:00,23.5,0,61.7,0,25.6,0,24.5,0,26.9,0
2004/10/3,5:25:00,23.5,0,62.3,0,25.6,0,24.5,0,26.8,0
2004/10/3,5:35:00,23.5,0,62,0,25.6,0,24.5,0,26.8,0
2004/10/3,5:45:00,23.6,0,62.1,0,25.6,0,24.5,0,26.8,0
2004/10/3,5:55:00,23.6,0,61.7,0,25.6,0,24.5,0,26.8,0
2004/10/3,6:05:00,23.6,0,62.2,0,25.5,0,24.5,0,26.7,0
2004/10/3,6:15:00,23.5,0,62.3,0,25.5,0,24.5,0,26.7,0
2004/10/3,6:25:00,23.5,0,62.4,0,25.5,0,24.5,0,26.7,0
2004/10/3,6:35:00,23.6,0,61.7,0,25.5,0,24.5,0,26.7,0
2004/10/3,6:45:00,23.6,0,61.7,0,25.5,0,24.5,0,26.7,0
2004/10/3,6:55:00,23.6,0,61.3,0,25.5,0,24.5,0,26.6,0
2004/10/3,7:05:00,23.6,0,62,0,25.4,0,24.6,0,26.6,0
2004/10/3,7:15:00,23.6,0,62.1,0,25.4,0,24.6,0,26.6,0
2004/10/3,7:25:00,23.6,0,61.9,0,25.4,0,24.7,0,26.6,0
2004/10/3,7:35:00,23.6,0,62.7,0,25.4,0,24.8,0,26.5,0
2004/10/3,7:45:00,23.6,0,62.4,0,25.4,0,24.8,0,26.5,0
2004/10/3,7:55:00,23.7,0,62.9,0,25.4,0,24.8,0,26.5,0
2004/10/3,8:05:00,23.7,0,60.3,0,25.4,0,24.9,0,26.5,0
2004/10/3,8:15:00,23.7,0,63,0,25.4,0,24.9,0,26.7,0
2004/10/3,8:25:00,23.8,0,63.7,0,25.4,0,24.9,0,26.7,0
2004/10/3,8:35:00,23.7,0,52.4,0,25.4,0,24.9,0,26.8,0
2004/10/3,8:45:00,23.7,0,55.2,0,25.4,0,24.9,0,26.8,0
2004/10/3,8:55:00,23.8,0,60.6,0,25.5,0,24.9,0,26.9,0
2004/10/3,9:05:00,23.9,0,63,0,25.6,0,24.9,0,26.9,0
2004/10/3,9:15:00,23.9,0,64,0,25.6,0,24.9,0,26.9,0
2004/10/3,9:25:00,24,0,63.3,0,25.6,0,24.8,0,26.8,0
2004/10/3,9:35:00,24,0,55.8,0,26,0,24.8,0,26.9,0
2004/10/3,9:45:00,23.8,0,46.5,0,26.6,0,24.8,0,27,0
2004/10/3,9:55:00,23.4,0,53.2,0,26.6,0,24.8,0,27,0
2004/10/3,10:05:00,23.7,0,58.3,0,26.6,0,24.8,0,27,0
2004/10/3,10:15:00,23.8,0,59.3,0,26.5,0,24.8,0,27,0
2004/10/3,10:25:00,23.8,0,58.2,0,26.4,0,24.8,0,27,0
2004/10/3,10:35:00,23.9,0,59.3,0,26.3,0,24.8,0,27,0
2004/10/3,10:45:00,23.7,0,47.4,0,26.2,0,24.8,0,26.9,0
2004/10/3,10:55:00,23.7,0,53.9,0,26.1,0,24.7,0,26.9,0
2004/10/3,11:05:00,23.9,0,57.6,0,26,0,24.7,0,26.9,0
2004/10/3,11:15:00,23.9,0,59.7,0,25.9,0,24.7,0,26.9,0
2004/10/3,11:25:00,24,0,59.6,0,25.8,0,24.7,0,26.8,0
2004/10/3,11:35:00,24,0,60.2,0,25.8,0,24.6,0,26.8,0
2004/10/3,11:45:00,24.1,0,54.3,0,25.7,0,24.6,0,26.7,0
2004/10/3,11:55:00,24.2,0,53.1,0,25.7,0,24.6,0,26.6,0
2004/10/3,12:05:00,24.1,0,50.2,0,25.6,0,24.6,0,26.6,0
2004/10/3,12:15:00,24.1,0,51.8,0,25.6,0,24.6,0,26.6,0
2004/10/3,12:25:00,24.2,0,51.9,0,25.6,0,24.7,0,26.5,0
2004/10/3,12:35:00,24.2,0,50.7,0,25.5,0,24.7,0,26.5,0
2004/10/3,12:45:00,24.2,0,49.4,0,25.5,0,24.6,0,26.5,0
2004/10/3,12:55:00,24.1,0,48.7,0,25.5,0,24.6,0,26.4,0
2004/10/3,13:05:00,24.2,0,50.2,0,25.5,0,24.6,0,26.4,0
2004/10/3,13:15:00,24.4,0,51.7,0,25.5,0,24.6,0,26.5,0
2004/10/3,13:25:00,24.6,0,56.8,0,25.5,0,24.6,0,26.6,0
2004/10/3,13:35:00,24.7,0,59.9,0,25.5,0,24.6,0,26.7,0
2004/10/3,13:45:00,24.7,0,58.8,0,25.5,0,24.6,0,26.7,0
2004/10/3,13:55:00,24.7,0,61.2,0,25.5,0,24.6,0,26.7,0
2004/10/3,14:05:00,24.7,0,58.2,0,25.5,0,24.5,0,26.7,0
2004/10/3,14:15:00,24.8,0,59.3,0,25.6,0,24.5,0,26.7,0
2004/10/3,14:25:00,24.9,0,60.3,0,25.6,0,24.6,0,26.7,0
2004/10/3,14:35:00,25,0,58,0,25.6,0,24.7,0,26.7,0
2004/10/3,14:45:00,25,0,59.2,0,25.7,0,24.7,0,26.7,0
2004/10/3,14:55:00,25.1,0,59.7,0,25.7,0,24.8,0,26.7,0
2004/10/3,15:05:00,25.2,0,58,0,25.7,0,24.8,0,26.7,0
2004/10/3,15:15:00,25.2,0,59.1,0,25.7,0,24.9,0,26.6,0
2004/10/3,15:25:00,25.3,0,58.3,0,25.7,0,25,0,26.6,0
2004/10/3,15:35:00,25.7,0,57.2,0,25.6,0,25.1,0,26.6,0
2004/10/3,15:45:00,26,0,54.4,0,25.6,0,25.1,0,26.6,0
2004/10/3,15:55:00,26,0,56.3,0,25.6,0,25.2,0,26.5,0
2004/10/3,16:05:00,25.8,0,57.9,0,25.6,0,25.3,0,26.5,0
2004/10/3,16:15:00,25.6,0,58.5,0,25.6,0,25.3,0,26.5,0
2004/10/3,16:25:00,25.5,0,58.6,0,25.6,0,25.3,0,26.5,0
2004/10/3,16:35:00,25.3,0,51.9,0,25.6,0,25.4,0,26.5,0
2004/10/3,16:45:00,25.3,0,56.9,0,25.6,0,25.4,0,26.4,0
2004/10/3,16:55:00,25.3,0,56.6,0,25.5,0,25.4,0,26.4,0
2004/10/3,17:05:00,25.2,0,55.2,0,25.6,0,25.4,0,26.5,0
2004/10/3,17:15:00,25.3,0,56.9,0,25.5,0,25.3,0,26.5,0
2004/10/3,17:25:00,25.2,0,55.7,0,25.5,0,25.3,0,26.6,0
2004/10/3,17:35:00,25.2,0,58.2,0,25.6,0,25.2,0,26.7,0
2004/10/3,17:45:00,25.2,0,58.3,0,25.6,0,25.2,0,26.7,0
2004/10/3,17:55:00,25.2,0,59.1,0,25.6,0,25.1,0,26.7,0
2004/10/3,18:05:00,25.2,0,59.1,0,25.6,0,25.1,0,26.8,0
2004/10/3,18:15:00,25.1,0,58.9,0,25.6,0,25.1,0,26.8,0
2004/10/3,18:25:00,25.1,0,58.9,0,25.6,0,25,0,26.8,0
2004/10/3,18:35:00,25.1,0,59.2,0,25.6,0,25,0,26.8,0
2004/10/3,18:45:00,25.2,0,59.9,0,25.6,0,24.9,0,26.8,0
2004/10/3,18:55:00,25.2,0,59.3,0,25.6,0,24.9,0,26.8,0
2004/10/3,19:05:00,25.2,0,59.9,0,25.6,0,24.8,0,26.7,0
2004/10/3,19:15:00,25.2,0,55.2,0,25.6,0,24.8,0,26.7,0
2004/10/3,19:25:00,25.1,0,56.3,0,25.6,0,24.8,0,26.6,0
2004/10/3,19:35:00,25.3,0,62.3,0,25.6,0,24.8,0,26.5,0
2004/10/3,19:45:00,25.4,0,63.1,0,25.6,0,24.8,0,26.5,0
2004/10/3,19:55:00,25.4,0,63,0,25.8,0,24.7,0,26.6,0
2004/10/3,20:05:00,25.5,0,62.9,0,26,0,24.8,0,26.7,0
2004/10/3,20:15:00,25.5,0,63.5,0,26.1,0,24.8,0,26.9,0
2004/10/3,20:25:00,25.5,0,62.2,0,26.3,0,24.9,0,27.2,0
2004/10/3,20:35:00,25.5,0,61.6,0,26.5,0,24.9,0,27.3,0
2004/10/3,20:45:00,25.5,0,62.4,0,26.6,0,25,0,27.5,0
2004/10/3,20:55:00,25.5,0,62.2,0,26.9,0,25.1,0,27.8,0
2004/10/3,21:05:00,25.5,0,62.6,0,27,0,25.1,0,27.8,0
2004/10/3,21:15:00,25.5,0,62.3,0,27.2,0,25.2,0,28,0
2004/10/3,21:25:00,25.5,0,62.4,0,27.3,0,25.3,0,28.2,0
2004/10/3,21:35:00,25.5,0,62.4,0,27.5,0,25.2,0,52.3,0
2004/10/3,21:45:00,25.5,0,62,0,27.6,0,25.2,0,41,0
2004/10/3,21:55:00,25.5,0,60.9,0,27.7,0,25.1,0,39.5,0
2004/10/3,22:05:00,25.5,0,59.4,0,28.1,0,25,0,39.3,0
2004/10/3,22:15:00,25.5,0,59.7,0,28.3,0,25.1,0,39,0
2004/10/3,22:25:00,25.5,0,59.1,0,28.4,0,25.2,0,39,0
2004/10/3,22:35:00,25.3,0,56,0,28.5,0,25.2,0,39,0
2004/10/3,22:45:00,25.4,0,60,0,28.6,0,25.2,0,40.4,0
2004/10/3,22:55:00,25.4,0,60.5,0,28.7,0,25.3,0,39.8,0
2004/10/3,23:05:00,25.4,0,61.2,0,28.7,0,25.3,0,38.3,0
2004/10/3,23:15:00,25.4,0,61.3,0,28.6,0,25.4,0,36.8,0
2004/10/3,23:25:00,25.4,0,61.3,0,28.6,0,25.4,0,35.5,0
2004/10/3,23:35:00,25.4,0,61.6,0,28.5,0,25.5,0,34.4,0
2004/10/3,23:45:00,25.4,0,61.1,0,28.5,0,25.5,0,33.6,0
2004/10/3,23:55:00,25.4,0,60.7,0,28.4,0,25.5,0,32.9,0
2004/10/4,0:05:00,25.4,0,60.5,0,28.3,0,25.6,0,32.3,0
2004/10/4,0:15:00,25.3,0,60.1,0,28.2,0,25.6,0,31.8,0
2004/10/4,0:25:00,25.3,0,59.8,0,28.1,0,25.6,0,31.3,0
2004/10/4,0:35:00,25.3,0,59.8,0,28.1,0,25.6,0,30.9,0
2004/10/4,0:45:00,25.2,0,60.2,0,28,0,25.6,0,30.6,0
2004/10/4,0:55:00,25.2,0,60.1,0,27.9,0,25.6,0,30.3,0
2004/10/4,1:05:00,25.2,0,59.8,0,27.8,0,25.6,0,30,0
2004/10/4,1:15:00,25.2,0,59.6,0,27.8,0,25.5,0,29.8,0
2004/10/4,1:25:00,25.1,0,60,0,27.7,0,25.5,0,29.6,0
2004/10/4,1:35:00,25.1,0,61,0,27.6,0,25.4,0,29.4,0
2004/10/4,1:45:00,25.1,0,61.7,0,27.6,0,25.3,0,29.3,0